Location: *
(58.7167°N, 26.1833°E)
Time: 13:59:29
(UTC+00:00)

SJ 16-02 - Pass Details

Date: 25 August 2019
Orbit: 605 x 618 km, 75.0° (Epoch: 22 September)

Event Time Altitude Azimuth Distance (km) Brightness Sun altitude
Rises 18:41:34 0° 185° (S) 2,872 4.5 -8.2°
Reaches altitude 10° 18:43:53 10° 178° (S) 1,974 3.6 -8.4°
Maximum altitude 18:48:02 42° 108° (ESE) 883 1.7 -8.8°
Drops below altitude 10° 18:52:14 10° 38° (NE) 1,994 4.0 -9.3°
Sets 18:54:34 0° 32° (NNE) 2,906 4.9 -9.5°
